Find Kosmos-2604

NORAD ID: 67678 Int'l Des: 2026-023 Owner: VVKOV Country: RU operational
LEOCIRCULARRETROGRADE

当前视图

正在加载3D地球...

关于 Kosmos-2604

正在加载描述...

即将过境

Passes for default location (London). Set your location on the main map for personalized predictions.

高度历史

Loading altitude history...

两行轨道根数

1 67678U 26023E 26146.65363242 .00011547 00000-0 46536-3 0 9992
2 67678 96.6224 210.5736 0017705 203.7697 156.2727 15.24820273 16723
Epoch: May 26, 2026 • Age: 4 hours

当前状态

高度 504.8 km
速度 7.62 km/s
星下点 71.25°N, 123.42°W
发射日期 Feb 5, 2026
运行时间 0.3 years
类型 other

技术详情

分类 Payload
质量 500.00 kg
干质量 500.00 kg
总质量 500.00 kg
长度 3.00 m
直径 1.30 m
跨度 3.00 m
形状 Cyl + 2 Pan
制造商 UNKRU
平台类型 Unk
阶段状态 In Orbit
所有者/国家 VVKOV/RU

Most Searched